Location: Clyde
(45.1830°S, 169.3170°E)
Time: 13:29:25
(UTC+13:00)

H-2A R/B - Pass Details

Date: 24 January 2019
Orbit: 258 x 32962 km, 27.9° (Epoch: 20 February)

Event Time Altitude Azimuth Distance (km) Brightness Sun altitude
Rises 22:06:13 0° 346° (NNW) 2,518 4.5 -7.3°
Reaches altitude 10° 22:09:07 10° 23° (NNE) 2,446 4.1 -7.7°
Maximum altitude 22:11:19 12° 46° (NE) 2,980 4.4 -8.0°
Drops below altitude 10° 22:14:46 10° 66° (ENE) 4,267 5.2 -8.5°
Sets 22:27:29 0° 87° (E) 9,387 7.1 -10.2°
